Date String (YYYY-MM-DD hh:mm:ss) UTC,Instrument flags,absolute air pressure of the measurement (hPa),sample flow rate (lpm),inlet stack bypass flow (lpm),air temperature of the measurement (°C),ambient temperature measured by the external sensor (°C),aerosol sample conditioner tube jacket temperature (°C),OPC LED temperature (°C),internal box temperature (°C),relative humidity of the measurement (%),span deviation,mass concentration of particles derived from Lorenz-Mie calculation of OPC scattering (μg/m³),mass concentration of particles derived from Lorenz-Mie calculation of OPC scattering (μg/m³),mass concentration of particles derived from Lorenz-Mie calculation of OPC scattering (μg/m³)
DateTimeUTC,F1_M11,P_M11,Q1_M11,Q2_M11,T1_M11,T2_M11,T3_M11,T4_M11,T5_M11,U1_M11,ZSPAN_M11,X0_M11,X2_M11,X1_M11
2024-02-23 22:00:00,SystemResetWarning,0830.8,5.00,000.00,022.5,021.9,000.0,030.6,024.2,06.8,0000.0,0002.83,0000.88,0000.75
2024-02-23 22:01:00,SystemResetWarning,0830.7,4.99,000.00,022.5,021.9,000.0,030.6,024.2,06.6,0000.0,0002.78,0000.86,0000.74
2024-02-23 22:02:00,SystemResetWarning,0830.8,5.00,000.00,022.5,021.9,000.0,030.6,024.2,06.8,0000.0,0001.67,0000.86,0000.74
2024-02-23 22:03:00,SystemResetWarning,0830.8,5.00,000.00,022.5,021.9,000.0,030.6,024.2,06.8,0000.0,0001.89,0000.85,0000.74
2024-02-23 22:04:00,SystemResetWarning,0830.8,5.01,000.00,022.5,021.9,000.0,030.6,024.2,06.6,0000.0,0001.85,0000.83,0000.73
2024-02-23 22:05:00,SystemResetWarning,0830.8,5.00,000.00,022.6,021.9,000.0,030.6,024.2,06.6,0000.0,0001.89,0000.85,0000.73
2024-02-23 22:06:00,SystemResetWarning,0830.8,5.00,000.00,022.6,021.9,000.0,030.7,024.2,07.0,0000.0,0002.01,0000.83,0000.74
2024-02-23 22:07:00,SystemResetWarning,0830.8,4.99,000.00,022.6,021.9,000.0,030.7,024.2,06.7,0000.0,0002.05,0000.82,0000.73
2024-02-23 22:08:00,SystemResetWarning,0830.8,4.99,000.00,022.6,021.9,000.0,030.7,024.2,06.9,0000.0,0002.18,0000.82,0000.73
2024-02-23 22:09:00,SystemResetWarning,0830.8,5.00,000.00,022.6,021.9,000.0,030.7,024.2,06.8,0000.0,0002.20,0000.82,0000.73
2024-02-23 22:10:00,SystemResetWarning,0830.8,5.01,000.00,022.6,022.0,000.0,030.7,024.3,06.5,0000.0,0002.20,0000.82,0000.74
2024-02-23 22:11:00,SystemResetWarning,0830.8,5.01,000.00,022.6,022.0,000.0,030.7,024.3,06.7,0000.0,0002.22,0000.82,0000.73
2024-02-23 22:12:00,SystemResetWarning,0830.8,5.00,000.00,022.6,022.0,000.0,030.7,024.3,06.9,0000.0,0002.23,0000.83,0000.73
2024-02-23 22:13:00,SystemResetWarning,0830.8,5.00,000.00,022.6,022.0,000.0,030.7,024.3,06.7,0000.0,0002.49,0000.83,0000.73
2024-02-23 22:14:00,SystemResetWarning,0830.8,5.00,000.00,022.6,022.0,000.0,030.7,024.3,06.6,0000.0,0002.72,0000.82,0000.73
2024-02-23 22:15:00,SystemResetWarning,0830.8,4.99,000.00,022.6,022.0,000.0,030.8,024.3,06.8,0000.0,0002.74,0000.83,0000.73
2024-02-23 22:16:00,SystemResetWarning,0830.7,4.99,000.00,022.6,022.0,000.0,030.8,024.3,06.7,0000.0,0002.70,0000.82,0000.73
2024-02-23 22:17:00,SystemResetWarning,0830.7,5.01,000.00,022.6,022.0,000.0,030.8,024.3,06.9,0000.0,0002.55,0000.81,0000.73
2024-02-23 22:18:00,SystemResetWarning,0830.7,5.00,000.00,022.7,022.0,000.0,030.8,024.3,06.9,0000.0,0002.45,0000.80,0000.73
2024-02-23 22:19:00,SystemResetWarning,0830.8,5.00,000.00,022.7,022.0,000.0,030.8,024.4,07.0,0000.0,0002.30,0000.79,0000.72
2024-02-23 22:20:00,SystemResetWarning,0830.8,5.00,000.00,022.7,022.0,000.0,030.8,024.4,07.1,0000.0,0002.28,0000.79,0000.72
2024-02-23 22:21:00,SystemResetWarning,0830.8,5.00,000.00,022.7,022.0,000.0,030.8,024.4,06.9,0000.0,0002.31,0000.81,0000.72
2024-02-23 22:22:00,SystemResetWarning,0830.8,5.00,000.00,022.7,022.0,000.0,030.8,024.4,06.6,0000.0,0002.36,0000.82,0000.73
2024-02-23 22:23:00,SystemResetWarning,0830.8,4.99,000.00,022.7,022.1,000.0,030.8,024.4,07.1,0000.0,0002.36,0000.83,0000.73
2024-02-23 22:24:00,SystemResetWarning,0830.8,5.00,000.00,022.7,022.1,000.0,030.8,024.4,07.1,0000.0,0002.36,0000.85,0000.73
2024-02-23 22:25:00,SystemResetWarning,0830.7,5.00,000.00,022.7,022.1,000.0,030.8,024.4,07.1,0000.0,0001.19,0000.85,0000.73
2024-02-23 22:26:00,SystemResetWarning,0830.7,5.00,000.00,022.7,022.1,000.0,030.8,024.4,06.5,0000.0,0001.18,0000.85,0000.72
2024-02-23 22:27:00,SystemResetWarning,0830.7,5.00,000.00,022.8,022.1,000.0,030.9,024.4,06.6,0000.0,0001.17,0000.85,0000.73
2024-02-23 22:28:00,SystemResetWarning,0830.7,5.01,000.00,022.8,022.1,000.0,030.9,024.4,06.7,0000.0,0001.18,0000.85,0000.73
2024-02-23 22:29:00,SystemResetWarning,0830.7,5.01,000.00,022.8,022.1,000.0,030.9,024.5,06.8,0000.0,0001.20,0000.87,0000.73
2024-02-23 22:30:00,SystemResetWarning,0830.7,5.01,000.00,022.8,022.1,000.0,030.9,024.5,06.7,0000.0,0001.25,0000.88,0000.73
2024-02-23 22:31:00,SystemResetWarning,0830.7,5.00,000.00,022.8,022.1,000.0,030.9,024.5,06.7,0000.0,0001.19,0000.86,0000.73
2024-02-23 22:32:00,SystemResetWarning,0830.7,4.99,000.00,022.8,022.1,000.0,030.9,024.5,06.9,0000.0,0001.14,0000.84,0000.72
2024-02-23 22:33:00,SystemResetWarning,0830.7,5.00,000.00,022.8,022.1,000.0,030.9,024.5,07.2,0000.0,0001.08,0000.81,0000.71
2024-02-23 22:34:00,SystemResetWarning,0830.7,5.01,000.00,022.8,022.1,000.0,030.9,024.5,07.2,0000.0,0001.05,0000.79,0000.70
2024-02-23 22:35:00,SystemResetWarning,0830.8,5.01,000.00,022.8,022.1,000.0,031.0,024.5,07.2,0000.0,0000.97,0000.77,0000.69
2024-02-23 22:36:00,SystemResetWarning,0830.8,5.00,000.00,022.8,022.1,000.0,031.0,024.5,07.6,0000.0,0000.95,0000.76,0000.69
2024-02-23 22:37:00,SystemResetWarning,0830.9,5.00,000.00,022.8,022.1,000.0,030.9,024.5,07.9,0000.0,0000.94,0000.75,0000.68
2024-02-23 22:38:00,SystemResetWarning,0830.8,5.00,000.00,022.8,022.2,000.0,031.0,024.5,08.0,0000.0,0000.94,0000.74,0000.67
2024-02-23 22:39:00,SystemResetWarning,0830.9,5.00,000.00,022.8,022.2,000.0,031.0,024.5,08.2,0000.0,0000.97,0000.76,0000.67
2024-02-23 22:40:00,SystemResetWarning,0830.8,5.00,000.00,022.8,022.2,000.0,031.0,024.5,08.1,0000.0,0000.96,0000.76,0000.67
2024-02-23 22:41:00,SystemResetWarning,0830.8,4.99,000.00,022.9,022.2,000.0,031.0,024.6,07.9,0000.0,0000.92,0000.73,0000.66
2024-02-23 22:42:00,SystemResetWarning,0830.9,4.99,000.00,022.9,022.2,000.0,031.0,024.5,08.0,0000.0,0000.96,0000.75,0000.66
2024-02-23 22:43:00,SystemResetWarning,0830.8,5.00,000.00,022.9,022.2,000.0,031.0,024.5,08.1,0000.0,0001.20,0000.75,0000.66
2024-02-23 22:44:00,SystemResetWarning,0830.9,5.00,000.00,022.9,022.2,000.0,031.0,024.6,08.1,0000.0,0002.22,0000.77,0000.66
2024-02-23 22:45:00,SystemResetWarning,0830.8,5.01,000.00,022.9,022.2,000.0,031.0,024.6,07.8,0000.0,0002.28,0000.77,0000.66
2024-02-23 22:46:00,SystemResetWarning,0830.9,5.00,000.00,022.9,022.2,000.0,031.0,024.6,07.6,0000.0,0002.25,0000.76,0000.65
2024-02-23 22:47:00,SystemResetWarning,0830.8,5.00,000.00,022.9,022.2,000.0,031.0,024.6,07.8,0000.0,0002.25,0000.76,0000.65
2024-02-23 22:48:00,SystemResetWarning,0830.8,4.99,000.00,022.9,022.1,000.0,031.0,024.6,07.8,0000.0,0002.64,0000.76,0000.64
2024-02-23 22:49:00,SystemResetWarning,0830.8,4.99,000.00,022.9,022.1,000.0,031.1,024.6,07.9,0000.0,0004.02,0000.77,0000.63
2024-02-23 22:50:00,SystemResetWarning,0830.9,5.00,000.00,022.9,022.1,000.0,031.1,024.6,08.0,0000.0,0004.32,0000.76,0000.62
2024-02-23 22:51:00,SystemResetWarning,0830.8,4.99,000.00,022.9,022.1,000.0,031.1,024.6,08.1,0000.0,0004.34,0000.76,0000.61
2024-02-23 22:52:00,SystemResetWarning,0830.8,4.99,000.00,022.9,022.1,000.0,031.1,024.6,07.9,0000.0,0005.40,0000.76,0000.59
2024-02-23 22:53:00,SystemResetWarning,0830.8,5.00,000.00,022.9,022.1,000.0,031.1,024.6,07.7,0000.0,0005.58,0000.73,0000.58
2024-02-23 22:54:00,SystemResetWarning,0830.8,5.01,000.00,022.9,022.1,000.0,031.1,024.6,07.8,0000.0,0005.47,0000.70,0000.56
2024-02-23 22:55:00,SystemResetWarning,0830.8,5.00,000.00,022.9,022.1,000.0,031.1,024.6,07.7,0000.0,0004.27,0000.67,0000.55
2024-02-23 22:56:00,SystemResetWarning,0830.8,4.99,000.00,022.9,022.1,000.0,031.1,024.6,07.8,0000.0,0004.18,0000.65,0000.54
2024-02-23 22:57:00,SystemResetWarning,0830.7,4.99,000.00,022.9,022.1,000.0,031.1,024.6,07.5,0000.0,0004.19,0000.66,0000.54
2024-02-23 22:58:00,SystemResetWarning,0830.8,5.00,000.00,022.9,022.1,000.0,031.1,024.6,07.7,0000.0,0004.21,0000.66,0000.54
2024-02-23 22:59:00,SystemResetWarning,0830.8,5.00,000.00,022.9,022.1,000.0,031.1,024.6,07.6,0000.0,0004.19,0000.66,0000.54
